Temperature
19 19 19 19 19 19 19 19 19 19 19 19 19 19 19 19 19 19 19 19 19 19 19 19 19 19 19 19 19 19 19 18 18 18 18 18 18 18 17 17 17 17 17
19 19 19 19 19 19 19 19 19 19 19 19 19 19 19 19 19 19 19 19 19 19 19 19 19 19 19 19 19 19 19 19 18 18 18 18 18 18 18 18 17 17 17
19 18 18 18 18 18 18 18 18 19 19 19 18 19 19 19 19 19 19 19 19 19 19 19 19 19 19 19 19 19 19 19 19 18 18 18 18 18 18 18 18 17 17
18 18 18 18 18 18 18 18 18 18 18 18 18 18 18 18 18 19 19 19 19 19 19 19 19 19 19 19 19 19 19 19 19 19 18 18 18 18 18 18 18 18 17
18 18 18 18 17 17 17 17 17 17 17 17 17 18 18 18 18 18 18 18 19 19 18 19 19 19 19 19 19 19 19 19 19 19 19 19 18 18 18 18 18 18 18
18 18 18 17 17 17 17 17 17 17 17 17 17 17 17 18 18 18 18 18 18 18 18 18 18 18 18 18 19 19 19 19 19 19 19 19 19 18 18 18 18 18 18
19 18 18 17 17 17 17 17 16 16 16 17 17 17 17 18 18 18 19 19 19 19 18 18 18 18 18 18 18 18 19 19 19 19 19 19 19 19 18 18 18 18 18
19 18 18 18 17 17 17 16 16 16 16 16 16 16 17 17 18 19 19 19 19 19 18 18 18 18 18 18 18 18 18 18 19 19 19 19 19 19 18 18 18 18 18
19 18 18 18 17 17 16 16 16 16 15 16 16 16 16 17 18 18 19 19 19 19 18 18 18 18 18 18 18 18 18 18 18 18 18 18 18 18 18 18 18 18 18
18 18 17 17 17 17 17 16 16 16 16 15 15 16 16 16 16 16 17 18 19 19 18 18 18 18 18 18 18 18 18 18 18 18 18 18 18 18 18 18 18 18 18
18 18 17 17 17 17 17 16 17 16 16 15 15 15 15 15 16 15 16 17 18 18 18 18 18 18 18 18 17 17 17 17 17 17 17 17 17 17 18 18 18 18 18
18 18 17 17 17 17 17 16 16 16 15 15 15 15 14 15 15 15 15 16 17 18 18 18 18 17 17 17 17 17 17 17 17 17 17 17 17 17 17 17 17 17 17
17 18 17 17 17 17 17 16 16 16 15 15 15 14 14 14 15 15 15 15 16 17 17 17 17 17 17 17 17 16 16 16 16 16 16 16 16 16 17 17 17 17 17
16 17 16 16 16 16 16 16 16 15 15 14 15 14 14 14 14 14 15 15 15 16 16 16 16 16 16 16 16 16 15 15 15 15 16 16 16 16 16 16 16 17 17
15 15 16 16 15 15 15 15 15 15 15 14 14 14 14 14 14 14 14 15 15 15 15 15 15 15 15 15 15 15 15 15 15 15 15 15 15 15 15 16 16 16 16
14 15 15 15 15 15 14 14 14 14 14 14 14 14 14 14 14 14 14 14 15 15 15 14 14 14 14 14 14 14 14 14 14 14 14 14 14 15 15 15 15 15 15
13 14 14 14 14 14 14 14 14 14 14 14 14 14 14 14 14 14 14 14 14 15 14 14 14 14 13 14 13 13 13 13 13 13 13 14 14 14 14 14 14 14 15
12 12 13 13 13 13 14 14 14 14 14 14 14 14 14 14 14 14 14 14 14 14 14 13 13 13 13 13 13 13 12 12 13 13 13 13 13 13 13 13 13 14 14
11 11 12 12 13 13 13 13 13 13 14 13 13 14 14 14 14 14 14 14 14 14 14 14 13 13 13 12 12 12 12 12 12 12 12 12 12 12 12 13 13 13 13
10 10 11 11 12 12 12 13 13 13 13 13 13 13 13 13 13 14 14 14 14 13 13 13 13 12 12 12 12 12 11 11 11 11 12 12 12 12 12 12 12 12 12
10 10 10 10 11 11 12 12 12 13 13 13 13 13 13 13 13 13 13 13 13 13 13 13 12 12 12 11 11 11 11 11 11 11 11 11 11 11 11 11 12 12 12
9 9 9 10 10 10 11 11 12 12 12 12 12 13 13 13 13 13 13 13 13 13 13 12 12 12 11 11 11 11 11 11 11 11 11 10 11 11 11 11 11 11 11
9 9 9 9 9 10 10 11 11 12 12 12 12 12 12 12 12 12 12 12 12 12 13 13 12 12 12 11 11 12 12 12 11 11 11 10 10 10 10 10 10 11 11
9 9 9 9 9 9 10 10 11 11 11 11 12 12 12 12 12 12 12 12 12 12 12 12 12 11 12 11 12 12 12 12 12 11 11 11 10 10 10 10 10 10 10
8 8 8 9 9 9 9 10 10 10 11 11 11 11 11 11 11 11 11 11 11 11 11 11 11 11 11 11 11 12 12 12 11 11 11 11 10 10 10 9 9 9 9
8 8 8 8 9 9 9 9 10 10 10 10 10 11 11 11 11 11 11 11 11 11 11 11 11 11 11 11 11 12 12 12 12 11 11 11 11 10 9 9 9 9 9
Wind_Speed
3 4 3 3 5 6 3 3 4 5 5 5 6 7 8 9 9 10 9 19 22 23 22 21 21 21 22 22 22 22 23 23 24 25 26 27 27 26 26 25 24 24 23
2 3 4 4 4 5 6 4 5 5 5 5 6 7 8 7 7 7 8 14 21 24 23 23 22 22 23 23 23 23 23 24 24 25 27 27 28 28 28 27 27 26 25
2 3 4 5 5 6 6 5 6 5 6 7 7 8 9 8 7 7 9 10 13 21 24 24 24 24 24 24 24 24 24 24 25 26 27 28 28 29 29 28 28 27 27
2 2 4 4 3 4 4 5 6 6 6 6 7 8 9 8 10 8 9 10 11 14 19 25 26 25 25 25 25 24 24 24 25 25 26 27 28 29 29 29 29 29 28
3 2 3 4 4 4 4 6 4 4 6 6 7 8 9 9 9 11 10 11 12 14 13 18 27 27 27 26 26 25 24 24 24 25 25 26 28 28 29 29 30 29 29
3 3 4 4 4 4 4 4 6 6 6 7 9 9 7 8 8 10 12 11 10 13 15 14 15 21 27 26 26 26 24 24 24 25 25 25 27 28 29 29 30 30 30
2 2 4 4 5 4 5 6 6 7 7 6 6 7 8 10 11 10 11 10 11 11 11 11 11 12 15 25 27 26 25 25 24 25 25 25 25 26 28 29 29 30 30
1 3 3 4 5 5 7 6 5 5 6 6 5 6 6 6 8 12 10 11 12 10 10 11 9 9 9 10 16 24 25 24 24 24 24 24 24 25 26 28 29 29 29
2 2 3 4 5 5 5 6 6 7 6 6 5 5 4 5 6 5 7 8 9 9 9 7 8 7 10 9 9 15 21 22 21 21 21 21 21 23 24 26 28 29 29
4 3 4 4 4 5 6 7 5 5 6 7 6 6 7 7 6 6 6 6 8 8 9 7 6 6 7 6 7 8 12 13 15 16 17 18 19 21 23 25 27 28 28
6 6 6 4 4 5 6 6 6 6 6 7 7 7 8 7 8 7 8 7 6 4 5 6 5 4 2 2 2 3 7 9 9 11 13 16 18 19 21 23 26 27 28
5 7 6 5 4 5 5 6 6 8 7 8 7 7 8 7 7 6 7 8 7 5 2 1 1 1 1 2 3 5 4 4 4 6 7 9 11 13 16 20 23 25 27
6 4 3 2 3 5 6 6 7 8 8 8 8 8 8 8 8 8 8 8 7 4 1 1 3 3 2 4 6 8 8 6 4 2 2 2 3 4 5 9 13 18 21
7 7 5 4 5 6 7 6 6 8 7 7 9 9 7 8 8 8 7 7 6 4 2 1 3 4 4 5 7 8 8 9 9 8 8 8 7 7 7 5 4 2 4
9 9 9 7 7 7 7 7 7 8 8 8 8 9 8 7 7 7 7 6 6 5 3 1 2 3 4 5 7 8 9 12 13 12 12 13 13 13 13 13 13 13 11
9 10 11 10 9 8 8 8 8 8 8 8 7 8 8 7 7 7 7 7 7 6 3 1 2 3 4 6 10 11 12 15 15 15 15 15 16 16 17 17 17 17 16
10 10 11 11 10 10 9 9 9 9 9 8 8 8 8 8 6 6 6 6 6 5 4 3 3 4 5 7 8 9 10 10 12 16 17 17 18 18 19 19 19 19 18
10 11 11 12 12 11 10 9 10 9 8 9 8 8 8 7 6 5 4 5 4 4 6 8 4 4 5 7 8 8 7 10 11 16 18 18 19 19 19 20 20 20 20
11 11 11 12 12 12 11 10 9 8 8 8 8 8 7 6 5 4 4 4 4 5 6 9 6 4 4 6 7 8 9 7 10 14 17 18 19 20 20 19 20 19 20
11 11 11 11 12 13 13 11 10 8 7 7 6 5 5 4 4 3 3 4 5 7 8 9 8 6 5 5 7 7 7 6 7 9 12 14 18 19 19 18 18 18 18
13 11 11 10 10 11 12 9 8 8 6 5 4 3 3 1 1 2 3 5 7 8 9 9 9 7 6 6 6 5 7 6 7 7 8 7 7 8 11 14 15 16 16
11 11 11 11 11 12 10 7 7 7 5 5 3 2 1 2 4 7 8 8 9 10 10 9 8 8 7 6 5 6 7 6 5 5 6 6 6 7 6 9 12 14 15
11 10 10 10 11 10 10 9 8 6 6 4 4 3 3 4 6 8 11 11 10 10 9 8 10 9 8 6 6 6 5 5 5 5 7 8 7 8 5 9 12 14 14
9 10 10 11 10 11 9 9 9 7 6 5 4 4 5 6 6 9 10 10 9 8 8 8 8 8 8 6 6 6 6 6 5 5 7 8 7 7 7 7 10 13 13
10 11 11 10 10 9 8 9 9 7 6 6 5 6 7 8 10 12 12 12 12 10 13 15 14 12 12 10 6 5 5 6 6 4 4 6 7 7 5 5 6 9 11
10 11 11 10 9 8 7 9 11 7 6 6 6 6 9 11 12 12 11 12 13 11 11 11 10 10 8 7 6 3 3 5 6 4 3 4 7 6 4 4 5 7 7
Wind_Direction
249 277 298 306 297 290 269 231 247 246 240 244 253 249 239 234 235 229 212 189 192 198 204 209 215 221 224 224 224 224 223 224 222 220 220 221 221 221 221 221 220 219 218
265 288 289 287 280 283 293 293 284 274 271 269 270 272 271 262 255 242 229 205 202 204 207 211 216 220 223 224 223 224 223 223 223 222 221 221 221 221 221 221 220 219 219
240 262 273 271 263 270 276 274 275 273 267 264 261 261 263 261 260 254 250 241 224 216 213 214 216 219 221 223 223 223 222 223 223 223 222 221 221 221 221 221 221 220 219
279 260 270 273 278 270 261 258 252 258 261 260 260 259 259 256 252 247 248 246 243 239 221 218 218 219 220 221 222 222 221 222 223 223 222 221 220 221 221 221 221 220 218
320 306 301 302 304 289 281 283 286 268 270 267 263 256 252 252 252 250 242 240 239 236 232 225 220 219 221 221 222 221 220 222 223 223 222 221 220 220 220 221 221 220 219
5 12 311 333 338 310 300 311 316 298 279 267 269 269 257 249 248 246 244 242 237 236 235 235 221 220 221 221 222 222 221 221 222 223 223 222 221 220 220 220 220 220 219
16 340 305 330 311 303 321 312 300 298 294 283 275 274 261 246 240 239 237 239 241 237 233 227 225 219 216 221 224 226 225 224 224 224 224 223 222 221 220 220 220 220 219
3 296 352 326 319 328 305 297 309 303 298 298 290 293 289 273 246 243 233 232 237 240 237 232 224 223 224 215 221 226 228 228 227 225 224 223 223 222 221 221 220 219 219
225 261 288 290 306 300 304 331 307 294 299 303 286 273 283 286 313 284 257 244 236 231 234 234 230 225 225 224 218 219 225 229 230 230 228 226 225 224 223 222 221 220 218
221 231 247 263 280 291 298 297 328 331 310 297 291 277 267 280 289 296 296 281 256 239 232 233 234 228 227 220 220 213 214 222 228 233 233 233 231 228 226 224 223 222 220
220 219 222 230 254 271 282 294 299 292 289 286 289 294 292 284 266 266 281 287 288 265 235 228 226 226 208 170 174 180 194 204 215 230 236 239 238 234 230 227 227 226 223
240 221 213 208 231 260 281 291 288 286 280 282 283 281 280 279 277 270 273 280 280 278 265 225 177 140 121 103 106 101 114 160 191 221 233 238 239 237 234 231 231 231 227
290 271 261 216 246 263 270 270 273 274 275 275 274 272 272 271 273 275 275 277 279 283 303 51 63 73 84 91 96 94 89 99 110 132 165 206 224 225 225 231 232 234 233
318 325 322 285 259 259 269 272 278 275 273 275 278 274 271 269 267 264 263 267 276 271 261 102 57 62 69 82 96 96 90 87 87 85 85 84 85 86 86 92 103 132 207
323 327 321 305 284 271 265 267 269 272 276 274 275 274 268 266 261 257 254 245 242 248 241 135 94 73 80 83 90 92 91 85 85 84 83 82 81 80 80 82 82 81 81
325 319 313 305 293 280 270 264 269 272 275 276 273 272 270 266 262 257 250 243 234 229 222 144 115 112 101 102 93 95 94 87 81 83 83 83 81 79 77 78 79 80 80
316 311 306 298 290 284 275 267 266 272 277 281 282 282 277 269 261 257 248 238 229 213 188 136 108 109 106 110 107 105 101 92 85 83 84 83 81 80 77 76 76 77 78
303 303 302 297 287 282 278 273 270 274 280 284 287 288 285 280 266 259 242 231 216 192 163 145 132 121 109 116 114 111 106 99 93 86 85 83 82 81 80 79 77 76 77
289 294 297 298 293 285 280 275 269 268 272 279 285 285 284 277 266 248 225 207 184 163 146 139 137 124 112 117 111 109 109 107 102 99 89 84 83 81 79 79 79 79 79
277 278 283 289 294 290 280 273 269 265 266 274 280 285 288 275 260 234 212 182 158 143 135 133 133 131 122 122 121 123 121 122 119 109 97 97 92 85 81 80 81 82 83
273 274 279 283 288 289 280 275 271 264 260 263 270 286 295 330 310 207 182 153 145 138 137 135 135 133 134 139 139 141 131 128 122 125 125 122 109 94 85 80 81 84 85
270 272 276 284 289 294 302 288 271 267 258 248 241 232 196 134 112 105 113 125 135 142 145 141 139 141 143 141 137 139 140 142 141 152 136 123 108 94 85 85 91 92 89
285 284 285 286 287 291 284 258 243 248 243 229 212 197 185 146 138 122 110 104 104 115 132 141 141 143 142 146 146 143 143 136 125 142 126 115 106 97 94 104 108 101 95
285 285 282 281 283 284 278 246 231 233 233 212 194 175 154 146 144 136 127 111 96 91 106 116 120 121 121 128 133 137 132 118 115 124 128 125 124 116 112 117 126 117 108
281 280 279 274 276 280 271 244 228 227 214 191 169 155 149 143 141 137 125 117 107 94 87 96 101 106 107 106 112 129 142 135 131 129 124 124 133 130 127 131 146 134 117
275 275 274 271 271 275 270 240 229 227 202 170 154 147 144 140 141 137 131 128 123 122 119 112 108 113 113 106 98 109 155 147 137 123 115 118 143 142 134 145 151 157 140
Height
1525 1526 1526 1526 1527 1527 1527 1526 1526 1526 1527 1527 1527 1527 1528 1528 1529 1529 1530 1530 1531 1531 1531 1532 1533 1534 1535 1536 1538 1539 1541 1543 1545 1547 1549 1552 1554 1556 1558 1560 1561 1563 1565
1522 1522 1522 1522 1522 1522 1522 1522 1522 1522 1522 1522 1522 1523 1523 1523 1524 1525 1525 1525 1525 1526 1527 1527 1528 1529 1530 1532 1533 1535 1536 1538 1540 1543 1545 1547 1549 1551 1553 1555 1557 1559 1561
1519 1518 1519 1518 1518 1518 1518 1517 1517 1516 1516 1516 1516 1517 1517 1517 1518 1519 1519 1520 1520 1520 1521 1522 1523 1524 1525 1526 1528 1530 1531 1533 1535 1538 1540 1542 1544 1546 1548 1550 1552 1554 1556
1516 1515 1515 1515 1515 1514 1514 1513 1513 1512 1511 1511 1511 1511 1511 1511 1511 1512 1513 1513 1514 1514 1514 1515 1517 1518 1519 1521 1522 1524 1526 1528 1530 1532 1534 1536 1538 1541 1543 1545 1547 1549 1551
1513 1513 1512 1512 1511 1511 1510 1510 1509 1508 1507 1506 1505 1505 1505 1505 1505 1505 1505 1506 1506 1507 1508 1508 1510 1512 1513 1515 1516 1518 1520 1522 1524 1526 1528 1530 1533 1535 1537 1539 1541 1543 1545
1511 1510 1509 1509 1508 1507 1507 1506 1505 1504 1503 1502 1501 1501 1500 1499 1498 1498 1499 1499 1499 1500 1501 1502 1503 1505 1506 1508 1510 1512 1513 1516 1518 1520 1522 1524 1526 1529 1531 1533 1536 1538 1540
1508 1507 1506 1505 1504 1504 1503 1502 1501 1500 1499 1499 1498 1496 1494 1493 1492 1491 1492 1492 1493 1493 1494 1495 1497 1498 1500 1501 1504 1506 1507 1509 1511 1513 1515 1517 1520 1522 1524 1527 1529 1531 1534
1505 1505 1504 1503 1501 1500 1499 1499 1498 1497 1496 1496 1495 1493 1490 1489 1487 1486 1486 1486 1486 1487 1488 1489 1491 1492 1494 1495 1497 1499 1501 1503 1505 1507 1509 1511 1513 1515 1517 1520 1522 1525 1527
1502 1502 1501 1500 1498 1497 1496 1496 1495 1493 1492 1491 1491 1491 1489 1485 1484 1482 1482 1482 1482 1482 1482 1483 1484 1485 1488 1489 1491 1492 1494 1496 1498 1500 1501 1503 1505 1507 1509 1512 1515 1518 1520
1499 1499 1498 1497 1495 1494 1493 1492 1492 1490 1488 1487 1487 1487 1486 1484 1483 1479 1478 1478 1477 1477 1477 1478 1480 1481 1482 1483 1484 1485 1487 1489 1490 1492 1494 1496 1498 1499 1501 1504 1507 1510 1513
1496 1495 1494 1493 1492 1491 1489 1488 1487 1485 1484 1483 1482 1481 1480 1479 1479 1477 1474 1473 1473 1473 1473 1474 1475 1476 1477 1477 1478 1479 1480 1482 1484 1486 1487 1488 1490 1491 1493 1495 1498 1502 1505
1494 1492 1491 1489 1488 1487 1486 1484 1483 1481 1480 1478 1477 1476 1475 1474 1473 1473 1471 1470 1469 1469 1470 1470 1470 1470 1471 1473 1474 1474 1475 1476 1478 1479 1480 1481 1482 1484 1485 1487 1490 1494 1497
1490 1489 1487 1485 1484 1482 1481 1480 1478 1477 1475 1473 1472 1470 1470 1469 1468 1468 1467 1466 1466 1466 1466 1466 1466 1467 1468 1468 1469 1470 1471 1472 1473 1474 1475 1476 1476 1477 1479 1481 1483 1486 1490
1483 1483 1481 1480 1479 1478 1477 1475 1473 1472 1470 1469 1467 1465 1463 1462 1462 1462 1462 1462 1461 1461 1462 1462 1462 1463 1464 1465 1465 1467 1467 1468 1469 1470 1470 1471 1472 1473 1474 1475 1478 1480 1483
1477 1476 1475 1474 1473 1473 1471 1470 1468 1467 1465 1463 1461 1459 1458 1456 1456 1455 1455 1456 1457 1456 1457 1458 1459 1460 1460 1461 1463 1464 1464 1465 1466 1467 1467 1468 1469 1470 1470 1472 1473 1476 1478
1470 1469 1469 1468 1467 1467 1466 1465 1463 1462 1460 1458 1456 1454 1452 1451 1450 1449 1449 1449 1450 1452 1453 1453 1455 1456 1458 1459 1460 1461 1462 1463 1464 1465 1466 1466 1467 1468 1468 1469 1471 1472 1474
1464 1463 1462 1461 1460 1460 1460 1459 1457 1456 1454 1452 1451 1449 1447 1446 1444 1444 1443 1444 1444 1446 1448 1450 1452 1454 1456 1457 1459 1460 1462 1463 1463 1465 1466 1466 1467 1467 1468 1469 1470 1471 1473
1456 1455 1454 1453 1453 1452 1452 1452 1451 1450 1448 1447 1445 1443 1441 1440 1439 1439 1438 1438 1439 1441 1443 1445 1449 1452 1454 1456 1458 1460 1461 1463 1464 1465 1466 1467 1468 1469 1469 1470 1470 1472 1473
1449 1448 1447 1445 1445 1444 1444 1444 1444 1443 1442 1441 1439 1438 1436 1435 1434 1434 1434 1434 1435 1437 1439 1442 1446 1450 1453 1456 1458 1460 1462 1464 1465 1467 1468 1469 1470 1470 1471 1472 1472 1473 1474
1443 1441 1440 1438 1437 1436 1436 1436 1436 1436 1435 1435 1434 1432 1431 1431 1430 1430 1430 1430 1431 1433 1436 1440 1444 1448 1452 1455 1458 1460 1463 1465 1467 1469 1470 1471 1472 1473 1473 1474 1474 1475 1476
1438 1436 1434 1432 1431 1430 1429 1429 1429 1429 1429 1429 1428 1427 1426 1426 1426 1427 1427 1428 1429 1431 1435 1438 1442 1447 1451 1454 1457 1461 1463 1467 1470 1471 1472 1474 1475 1475 1476 1476 1477 1478 1478
1432 1430 1428 1426 1425 1424 1422 1422 1422 1422 1422 1423 1423 1422 1422 1422 1423 1424 1425 1427 1428 1430 1433 1437 1441 1445 1450 1454 1458 1461 1464 1467 1470 1474 1474 1476 1477 1478 1478 1479 1479 1480 1481
1426 1424 1422 1421 1419 1417 1416 1415 1416 1416 1417 1418 1418 1418 1418 1419 1420 1421 1423 1426 1428 1431 1434 1437 1441 1445 1450 1454 1457 1461 1465 1467 1470 1473 1476 1477 1479 1480 1481 1481 1482 1482 1482
1420 1418 1416 1414 1412 1411 1410 1409 1409 1410 1411 1412 1413 1414 1415 1416 1418 1420 1422 1425 1428 1431 1435 1438 1442 1446 1450 1455 1458 1462 1465 1468 1471 1474 1476 1478 1480 1481 1483 1484 1484 1484 1484
1412 1411 1409 1408 1406 1404 1404 1403 1403 1404 1405 1407 1408 1410 1411 1414 1416 1419 1421 1424 1428 1432 1436 1440 1444 1447 1452 1456 1459 1462 1466 1468 1472 1475 1477 1478 1480 1482 1484 1485 1486 1486 1486
1405 1404 1402 1401 1400 1399 1398 1397 1398 1399 1400 1402 1405 1407 1409 1412 1415 1418 1421 1424 1428 1432 1436 1441 1445 1450 1454 1457 1460 1463 1466 1468 1471 1474 1477 1479 1481 1482 1485 1486 1487 1487 1488